SR 1 @Wilkins Rd, Milford DE USA current weather conditions

sailwx.info

Wind from 200 at 4 knots gusting 8

Air temperature 20.1° C
Dewpoint 18.9° C

Last reported at 2020-Sep-29 04:00 UTC.
Time now 2020-Sep-29 04:52 UTC

Location: N 38°53' W 075°23'.
View on Google Maps.

See reports from other nearby stations

  
Tides and Currents Weather Stations Pressure Air Temp Water Temp Dewpoint Dewpoint Depression Visibility Wind Speed Wind Dir Waves Ship Positions
date/time (UTC)wind fromknots sea level pressurealtimeterstation pressurevisibilityair tempwater tempwave heightnotes
2020-Sep-29 04:00 200 4 gusting 8 20.1
2020-Sep-29 03:50 200 4 gusting 8 20.1
2020-Sep-29 03:45 195 4 gusting 7 20.1
2020-Sep-29 03:40 190 4 gusting 8 19.9
2020-Sep-29 03:35 190 5 gusting 8 20.1
2020-Sep-29 03:30 180 5 gusting 8 20.1
2020-Sep-29 03:25 185 5 gusting 8 20.1
2020-Sep-29 03:20 175 6 gusting 8 20.1
2020-Sep-29 03:15 175 4 gusting 8 20.1
2020-Sep-29 03:10 175 5 gusting 8 20.1
2020-Sep-29 03:05 180 6 gusting 8 20.1
2020-Sep-29 03:00 190 5 gusting 9 20.2
2020-Sep-29 02:55 175 5 gusting 9 20.2
2020-Sep-29 02:50 190 5 gusting 9 20.2
2020-Sep-29 02:45 180 5 gusting 9 20.2
2020-Sep-29 02:40 180 7 gusting 10 20.4
2020-Sep-29 02:35 180 6 gusting 10 20.4
2020-Sep-29 02:30 190 6 gusting 10 20.4
2020-Sep-29 02:25 190 6 gusting 10 20.4
2020-Sep-29 02:20 195 5 gusting 11 20.4
2020-Sep-29 02:15 195 6 gusting 11 20.4
2020-Sep-29 02:10 185 7 gusting 11 20.4
2020-Sep-29 02:05 185 7 gusting 11 20.4
2020-Sep-29 02:00 175 6 gusting 10 20.4
2020-Sep-29 01:55 185 6 gusting 9 20.4
2020-Sep-29 01:50 190 6 gusting 12 20.6
2020-Sep-29 01:45 175 7 gusting 12 20.6
2020-Sep-29 01:40 185 6 gusting 10 20.6
2020-Sep-29 01:35 170 7 gusting 12 20.6
2020-Sep-29 01:30 175 8 gusting 12 20.6
2020-Sep-29 01:25 175 7 gusting 11 20.6
2020-Sep-29 01:20 175 6 gusting 10 20.6
2020-Sep-29 01:15 185 6 gusting 9 20.6
2020-Sep-29 01:10 170 7 gusting 9 20.6
2020-Sep-29 01:05 170 6 gusting 10 20.8
2020-Sep-29 01:00 170 6 gusting 10 20.8
2020-Sep-29 00:55 165 6 gusting 9 20.9
2020-Sep-29 00:50 170 6 gusting 9 20.9
2020-Sep-29 00:45 165 5 gusting 8 20.9
2020-Sep-29 00:40 170 5 gusting 7 21.1
2020-Sep-29 00:35 175 5 gusting 7 21.1
2020-Sep-29 00:30 165 5 gusting 8 21.2
2020-Sep-29 00:25 165 6 gusting 9 21.4
2020-Sep-29 00:20 165 6 gusting 9 21.4
2020-Sep-29 00:15 170 5 gusting 10 21.6
2020-Sep-29 00:10 165 6 gusting 10 21.6
2020-Sep-29 00:05 170 5 gusting 9 21.8
2020-Sep-29 00:00 170 7 gusting 9 21.9
2020-Sep-28 23:55 165 5 gusting 10 21.9
2020-Sep-28 23:50 175 7 gusting 10 22.1
2020-Sep-28 23:45 170 7 gusting 10 22.1
2020-Sep-28 23:40 175 6 gusting 10 22.2
2020-Sep-28 23:35 165 6 gusting 10 22.4
2020-Sep-28 23:30 170 7 gusting 11 22.6
2020-Sep-28 23:25 170 7 gusting 11 22.6
2020-Sep-28 23:20 175 7 gusting 10 22.9
2020-Sep-28 23:15 175 5 gusting 10 22.9
2020-Sep-28 23:10 170 6 gusting 11 23.1
2020-Sep-28 23:05 175 7 gusting 11 23.2
2020-Sep-28 23:00 170 6 gusting 10 23.4
2020-Sep-28 22:55 175 6 gusting 10 23.6
2020-Sep-28 22:50 170 7 gusting 12 23.8
2020-Sep-28 22:45 175 8 gusting 12 24.1
2020-Sep-28 22:40 170 8 gusting 11 24.2
2020-Sep-28 22:35 160 6 gusting 9 24.6
2020-Sep-28 22:30 165 6 gusting 9 24.9
2020-Sep-28 22:25 170 5 gusting 11 24.9
2020-Sep-28 22:20 180 6 gusting 12 25.1
2020-Sep-28 22:15 170 7 gusting 14 25.4
2020-Sep-28 22:10 175 8 gusting 14 25.6
2020-Sep-28 22:05 180 8 gusting 16 25.8
2020-Sep-28 22:00 180 9 gusting 16 25.9
2020-Sep-28 21:55 160 9 gusting 14 25.9
2020-Sep-28 21:50 165 9 gusting 16 26.2
2020-Sep-28 21:45 170 10 gusting 16 26.4
2020-Sep-28 21:40 165 8 gusting 13 26.6
2020-Sep-28 21:35 170 7 gusting 12 26.9
2020-Sep-28 21:30 160 7 gusting 12 26.8
2020-Sep-28 21:25 165 8 gusting 12 27.1
2020-Sep-28 21:20 165 9 gusting 12 27.4
2020-Sep-28 21:15 170 9 gusting 12 27.8
2020-Sep-28 21:10 175 5 gusting 11 28.1
2020-Sep-28 21:05 195 6 gusting 13 28.1
2020-Sep-28 21:00 195 8 gusting 16 28.1
2020-Sep-28 20:55 190 8 gusting 16 27.9
2020-Sep-28 20:50 190 7 gusting 11 27.9
2020-Sep-28 20:45 185 7 gusting 15 27.8
2020-Sep-28 20:40 170 8 gusting 15 27.9
2020-Sep-28 20:35 175 10 gusting 14 28.6
2020-Sep-28 20:30 170 9 gusting 13 28.6
2020-Sep-28 20:25 175 6 gusting 12 28.9
2020-Sep-28 20:20 160 9 gusting 12 29.1
2020-Sep-28 20:15 205 6 gusting 14 29.1
2020-Sep-28 20:10 190 7 gusting 14 29.1
2020-Sep-28 20:05 195 8 gusting 13 29.1
2020-Sep-28 20:00 195 9 gusting 14 29.2
2020-Sep-28 19:55 210 6 gusting 14 29.1
2020-Sep-28 19:50 205 8 gusting 12 29.6
2020-Sep-28 19:45 170 6 gusting 14 29.4
2020-Sep-28 19:40 205 6 gusting 14 28.4
2020-Sep-28 19:35 210 8 gusting 13 29.2
2020-Sep-28 19:30 200 6 gusting 10 29.4
2020-Sep-28 19:25 200 7 gusting 12 28.6
2020-Sep-28 19:20 200 6 gusting 12 28.6
2020-Sep-28 19:15 200 8 gusting 13 28.9
2020-Sep-28 19:10 160 7 gusting 13 28.6
2020-Sep-28 19:05 235 7 gusting 11 28.6
2020-Sep-28 19:00 190 7 gusting 13 28.8
2020-Sep-28 18:55 190 9 gusting 13 28.6
2020-Sep-28 18:50 165 6 gusting 12 29.1
2020-Sep-28 18:45 200 6 gusting 13 28.9
2020-Sep-28 18:40 185 8 gusting 13 28.8
2020-Sep-28 18:35 200 5 gusting 11 28.2
2020-Sep-28 18:30 190 7 gusting 14 28.6
2020-Sep-28 18:25 210 10 gusting 14 29.1
2020-Sep-28 18:20 170 6 gusting 10 28.6
2020-Sep-28 18:15 175 5 gusting 10 28.4
2020-Sep-28 18:10 210 6 gusting 10 28.1
2020-Sep-28 18:05 195 6 gusting 13 28.9
2020-Sep-28 18:00 205 8 gusting 13 28.8
2020-Sep-28 17:55 205 8 gusting 12 28.6
2020-Sep-28 17:50 220 7 gusting 11 28.4
2020-Sep-28 17:45 180 8 gusting 12 28.6
2020-Sep-28 17:40 205 6 gusting 13 28.4
2020-Sep-28 17:35 225 9 gusting 13 27.9
2020-Sep-28 17:30 255 9 gusting 13 27.9
2020-Sep-28 17:25 205 6 gusting 12 28.1
2020-Sep-28 17:20 200 9 gusting 13 27.6
2020-Sep-28 17:15 215 8 gusting 13 27.1
2020-Sep-28 17:10 205 7 gusting 13 27.6
2020-Sep-28 17:05 195 7 gusting 13 28.1
2020-Sep-28 17:00 200 6 gusting 14 27.9
2020-Sep-28 16:55 215 9 gusting 14 27.4
2020-Sep-28 16:50 215 8 gusting 14 27.1
2020-Sep-28 16:45 245 7 gusting 13 27.1
2020-Sep-28 16:40 225 9 gusting 13 27.4
2020-Sep-28 16:35 215 8 gusting 13 26.9
2020-Sep-28 16:30 215 6 gusting 14 26.6
2020-Sep-28 16:25 225 9 gusting 14 26.8
2020-Sep-28 16:20 190 7 gusting 13 26.9
2020-Sep-28 16:15 260 6 gusting 11 26.4
2020-Sep-28 16:10 235 6 gusting 11 26.2
2020-Sep-28 16:05 235 8 gusting 11 26.6
2020-Sep-28 16:00 200 9 gusting 11 26.1
2020-Sep-28 15:55 195 8 gusting 11 26.4
2020-Sep-28 15:50 200 7 gusting 11 26.4
2020-Sep-28 15:45 190 6 gusting 12 26.1
2020-Sep-28 15:40 225 9 gusting 12 25.8
2020-Sep-28 15:35 180 5 gusting 10 26.4
2020-Sep-28 15:30 215 3 gusting 12 26.1
2020-Sep-28 15:25 205 6 gusting 12 26.1
2020-Sep-28 15:20 215 7 gusting 10 25.6
2020-Sep-28 15:15 200 6 gusting 10 25.4
2020-Sep-28 15:10 215 5 gusting 10 25.1
2020-Sep-28 15:05 230 7 gusting 12 24.4
2020-Sep-28 15:00 225 10 gusting 12 24.6
2020-Sep-28 14:55 195 7 gusting 11 24.6
2020-Sep-28 14:50 235 6 gusting 9 24.6
2020-Sep-28 14:45 205 5 gusting 10 24.6
2020-Sep-28 14:40 205 7 gusting 10 24.1
2020-Sep-28 14:35 200 7 gusting 11 24.1
2020-Sep-28 14:30 200 7 gusting 11 23.9
2020-Sep-28 14:25 195 6 gusting 11 23.6
2020-Sep-28 14:20 215 7 gusting 11 22.9
2020-Sep-28 14:15 195 7 gusting 12 23.4
2020-Sep-28 14:10 200 9 gusting 12 22.6
2020-Sep-28 14:05 205 7 gusting 10 22.8
2020-Sep-28 14:00 200 8 gusting 10 22.6
2020-Sep-28 13:55 200 5 gusting 10 22.1
2020-Sep-28 13:50 205 7 gusting 10 22.1
2020-Sep-28 13:45 195 7 gusting 11 21.6
2020-Sep-28 13:40 205 8 gusting 11 21.4
2020-Sep-28 13:35 210 7 gusting 11 21.1
2020-Sep-28 13:30 210 6 gusting 9 21.1
2020-Sep-28 13:25 225 5 gusting 11 21.1
2020-Sep-28 13:20 230 7 gusting 11 20.9
2020-Sep-28 13:15 225 7 gusting 10 20.9
2020-Sep-28 13:10 220 6 gusting 10 20.9
2020-Sep-28 13:05 220 6 gusting 11 20.8
2020-Sep-28 13:00 205 7 gusting 12 20.6
2020-Sep-28 12:55 195 6 gusting 12 20.6
2020-Sep-28 12:50 205 6 gusting 10 20.6
2020-Sep-28 12:45 205 5 gusting 9 20.6
2020-Sep-28 12:40 190 4 gusting 7 20.4
2020-Sep-28 12:35 190 4 gusting 6 20.4
2020-Sep-28 12:30 195 4 gusting 7 20.4
2020-Sep-28 12:25 200 4 gusting 7 20.2
2020-Sep-28 12:20 190 2 gusting 6 20.1
2020-Sep-28 12:15 190 4 gusting 6 19.9
2020-Sep-28 12:10 180 3 gusting 6 19.9
2020-Sep-28 12:05 165 4 gusting 7 19.9
2020-Sep-28 12:00 175 4 gusting 7 19.9
2020-Sep-28 11:55 175 3 gusting 4 19.9
2020-Sep-28 11:50 165 2 gusting 5 19.9
2020-Sep-28 11:45 195 3 gusting 5 19.9
2020-Sep-28 11:40 175 3 gusting 6 19.8
2020-Sep-28 11:35 165 3 gusting 6 19.8
2020-Sep-28 11:30 165 4 gusting 6 19.6
2020-Sep-28 11:25 165 4 gusting 6 19.6
2020-Sep-28 11:20 160 3 gusting 5 19.6
2020-Sep-28 11:15 165 3 gusting 5 19.6
2020-Sep-28 11:10 145 3 gusting 6 19.6
2020-Sep-28 11:05 155 3 gusting 6 19.4
2020-Sep-28 11:00 155 4 gusting 5 19.4
2020-Sep-28 10:55 155 4 gusting 5 19.4
2020-Sep-28 10:50 165 3 gusting 4 19.4
2020-Sep-28 10:45 170 3 gusting 4 19.4
2020-Sep-28 10:40 160 3 gusting 4 19.4
2020-Sep-28 10:35 160 3 gusting 4 19.4
2020-Sep-28 10:30 155 3 gusting 4 19.4
2020-Sep-28 10:25 155 2 gusting 5 19.4
2020-Sep-28 10:20 160 2 gusting 5 19.4
2020-Sep-28 10:15 165 3 gusting 5 19.4
2020-Sep-28 10:10 160 2 gusting 4 19.4
2020-Sep-28 10:05 165 3 gusting 4 19.4
2020-Sep-28 10:00 175 3 gusting 4 19.4
2020-Sep-28 09:55 170 2 gusting 4 19.4
2020-Sep-28 09:50 185 2 gusting 4 19.4
2020-Sep-28 09:45 175 1 gusting 4 19.6
2020-Sep-28 09:40 200 3 gusting 4 19.4
2020-Sep-28 09:35 180 3 gusting 4 19.6
2020-Sep-28 09:30 195 2 gusting 4 19.6
2020-Sep-28 09:25 175 3 gusting 4 19.6
2020-Sep-28 09:20 185 2 gusting 5 19.6
2020-Sep-28 09:15 195 3 gusting 5 19.6
2020-Sep-28 09:10 190 3 gusting 5 19.6
2020-Sep-28 09:05 195 2 gusting 7 19.6
2020-Sep-28 09:00 175 3 gusting 7 19.6
2020-Sep-28 08:55 170 4 gusting 5 19.6
2020-Sep-28 08:50 175 3 gusting 5 19.6
2020-Sep-28 08:45 190 3 gusting 6 19.6
2020-Sep-28 08:40 180 3 gusting 6 19.6
2020-Sep-28 08:35 175 4 gusting 5 19.6
2020-Sep-28 08:30 175 4 gusting 5 19.6
2020-Sep-28 08:25 185 3 gusting 6 19.6
2020-Sep-28 08:20 200 4 gusting 6 19.6
2020-Sep-28 08:15 185 3 gusting 7 19.8
2020-Sep-28 08:10 195 5 gusting 7 19.8
2020-Sep-28 08:05 205 4 gusting 6 19.8
2020-Sep-28 08:00 205 4 gusting 6 19.8
2020-Sep-28 07:55 200 2 gusting 7 19.9
2020-Sep-28 07:50 195 4 gusting 8 19.9
2020-Sep-28 07:45 205 4 gusting 8 19.9
2020-Sep-28 07:40 205 5 gusting 8 19.9
2020-Sep-28 07:35 200 4 gusting 8 19.9
2020-Sep-28 07:30 205 4 gusting 6 19.9
2020-Sep-28 07:25 200 4 gusting 7 20.1
2020-Sep-28 07:20 200 5 gusting 8 20.1
2020-Sep-28 07:15 200 4 gusting 8 20.2
2020-Sep-28 07:10 190 4 gusting 8 20.4
2020-Sep-28 07:05 215 5 gusting 9 20.4
2020-Sep-28 07:00 200 6 gusting 9 20.4
2020-Sep-28 06:55 205 5 gusting 10 20.4
2020-Sep-28 06:50 210 6 gusting 10 20.4
2020-Sep-28 06:45 195 6 gusting 11 20.4
2020-Sep-28 06:40 215 6 gusting 11 20.4
2020-Sep-28 06:35 200 6 gusting 11 20.4
2020-Sep-28 06:30 200 8 gusting 11 20.2
2020-Sep-28 06:25 185 6 gusting 9 20.2
2020-Sep-28 06:20 205 6 gusting 9 20.2
2020-Sep-28 06:15 200 5 gusting 8 20.2
2020-Sep-28 06:10 185 6 gusting 8 20.1
2020-Sep-28 06:05 185 5 gusting 8 20.1
2020-Sep-28 06:00 170 4 gusting 8 20.1
2020-Sep-28 05:55 170 5 gusting 7 20.1
2020-Sep-28 05:50 180 5 gusting 7 20.2
2020-Sep-28 05:45 185 4 gusting 7 20.2
2020-Sep-28 05:40 195 5 gusting 7 20.1
2020-Sep-28 05:35 180 5 gusting 7 20.2
2020-Sep-28 05:30 180 4 gusting 6 20.2
2020-Sep-28 05:25 190 4 gusting 7 20.2
2020-Sep-28 05:20 195 3 gusting 7 20.4
2020-Sep-28 05:15 190 3 gusting 6 20.4
2020-Sep-28 05:10 185 4 gusting 6 20.4
2020-Sep-28 05:05 180 3 gusting 6 20.4
2020-Sep-28 05:00 190 4 gusting 7 20.4
2020-Sep-28 04:55 175 4 gusting 7 20.4
2020-Sep-28 04:50 185 3 gusting 7 20.4
2020-Sep-28 04:45 175 4 gusting 7 20.6
2020-Sep-28 04:40 180 5 gusting 7 20.6
2020-Sep-28 04:35 195 3 gusting 6 20.6
2020-Sep-28 04:30 200 4 gusting 6 20.6
2020-Sep-28 04:25 200 4 gusting 7 20.6
2020-Sep-28 04:20 200 3 gusting 7 20.8
2020-Sep-28 04:15 190 3 gusting 8 20.8
2020-Sep-28 04:10 185 5 gusting 8 20.8
2020-Sep-28 04:05 195 3 gusting 6 20.9
2020-Sep-28 04:00 195 4 gusting 8 20.9
2020-Sep-28 03:55 190 4 gusting 8 20.9
2020-Sep-28 03:50 185 4 gusting 7 20.9
2020-Sep-28 03:45 180 3 gusting 8 21.1
2020-Sep-28 03:40 200 5 gusting 8 20.9
2020-Sep-28 03:35 195 6 gusting 8 20.9
2020-Sep-28 03:30 200 4 gusting 8 21.1
2020-Sep-28 03:25 200 6 gusting 8 21.1
2020-Sep-28 03:20 200 5 gusting 8 21.1
2020-Sep-28 03:15 195 4 gusting 8 21.1
2020-Sep-28 03:10 190 5 gusting 7 21.1
2020-Sep-28 03:05 180 4 gusting 7 21.1
2020-Sep-28 03:00 180 5 gusting 8 21.2
2020-Sep-28 02:55 195 5 gusting 8 21.4
2020-Sep-28 02:50 195 5 gusting 7 21.4
2020-Sep-28 02:45 185 4 gusting 8 21.4
2020-Sep-28 02:40 195 5 gusting 8 21.4
2020-Sep-28 02:35 185 4 gusting 8 21.4
2020-Sep-28 02:30 185 4 gusting 8 21.4
2020-Sep-28 02:25 180 5 gusting 8 21.4
2020-Sep-28 02:20 175 5 gusting 9 21.4
2020-Sep-28 02:15 170 6 gusting 9 21.4
2020-Sep-28 02:10 160 5 gusting 8 21.4
2020-Sep-28 02:05 165 5 gusting 6 21.4
2020-Sep-28 02:00 160 4 gusting 7 21.4
2020-Sep-28 01:55 170 4 gusting 7 21.4
2020-Sep-28 01:50 165 5 gusting 7 21.4
2020-Sep-28 01:45 165 5 gusting 7 21.4
2020-Sep-28 01:40 170 4 gusting 6 21.4
2020-Sep-28 01:35 170 4 gusting 8 21.4
2020-Sep-28 01:30 160 5 gusting 8 21.4
2020-Sep-28 01:25 150 5 gusting 8 21.4
2020-Sep-28 01:20 170 6 gusting 8 21.4
2020-Sep-28 01:15 170 5 gusting 7 21.6
2020-Sep-28 01:10 155 5 gusting 7 21.6
2020-Sep-28 01:05 150 4 gusting 6 21.8
2020-Sep-28 01:00 145 4 gusting 7 21.8
2020-Sep-28 00:55 155 5 gusting 7 21.8
2020-Sep-28 00:50 155 5 gusting 7 21.8
2020-Sep-28 00:45 155 5 gusting 7 21.9
2020-Sep-28 00:40 145 4 gusting 7 21.9
2020-Sep-28 00:35 155 4 gusting 7 21.8
2020-Sep-28 00:30 130 5 gusting 8 21.4
2020-Sep-28 00:25 125 6 gusting 8 21.4
2020-Sep-28 00:20 120 4 gusting 8 21.6
2020-Sep-28 00:15 125 4 gusting 8 21.6
2020-Sep-28 00:10 130 5 gusting 8 21.6
2020-Sep-28 00:05 135 4 gusting 6 21.8
2020-Sep-28 00:00 145 4 gusting 6 21.8
2020-Sep-27 23:55 140 5 gusting 6 21.9
2020-Sep-27 23:50 160 4 gusting 7 21.6
2020-Sep-27 23:45 135 6 gusting 8 21.4
2020-Sep-27 23:40 130 6 gusting 8 21.6
2020-Sep-27 23:35 145 4 gusting 6 21.8
2020-Sep-27 23:30 135 4 gusting 6 21.8
2020-Sep-27 23:25 135 3 gusting 4 21.8
2020-Sep-27 23:20 150 2 gusting 4 21.9
2020-Sep-27 23:15 160 3 gusting 5 21.9
2020-Sep-27 23:10 135 3 gusting 5 21.6
2020-Sep-27 23:05 130 3 gusting 5 21.9
2020-Sep-27 23:00 140 4 gusting 5 22.1
2020-Sep-27 22:55 145 3 gusting 5 22.1
2020-Sep-27 22:50 140 3 gusting 4 21.6
2020-Sep-27 22:45 130 3 gusting 6 21.6
2020-Sep-27 22:40 130 4 gusting 6 22.1
2020-Sep-27 22:35 140 4 gusting 5 22.4
2020-Sep-27 22:30 165 3 gusting 5 22.4
2020-Sep-27 22:25 135 3 gusting 5 21.9
2020-Sep-27 22:20 120 4 gusting 5 22.1
2020-Sep-27 22:15 100 3 gusting 4 22.1
2020-Sep-27 22:10 095 3 gusting 4 22.4
2020-Sep-27 22:05 115 2 gusting 5 22.4
2020-Sep-27 22:00 090 4 gusting 6 22.6
2020-Sep-27 21:55 095 4 gusting 6 22.6
2020-Sep-27 21:50 085 5 gusting 7 22.9
2020-Sep-27 21:45 095 5 gusting 7 22.9
2020-Sep-27 21:40 110 4 gusting 7 23.2
2020-Sep-27 21:35 085 4 gusting 6 23.6
2020-Sep-27 21:30 095 4 gusting 5 23.8
2020-Sep-27 21:25 090 2 gusting 4 23.9
2020-Sep-27 21:20 100 3 gusting 4 23.9
2020-Sep-27 21:15 125 1 gusting 4 23.9
2020-Sep-27 21:10 120 3 gusting 4 23.9
2020-Sep-27 21:05 135 2 gusting 5 23.9
2020-Sep-27 21:00 115 3 gusting 6 23.9
2020-Sep-27 20:55 130 4 gusting 6 24.1
2020-Sep-27 20:50 095 1 gusting 5 23.9
2020-Sep-27 20:45 105 3 gusting 5 23.6
2020-Sep-27 20:40 105 4 gusting 6 23.6
2020-Sep-27 20:35 110 5 gusting 6 23.9
2020-Sep-27 20:30 115 3 gusting 6 23.8
2020-Sep-27 20:25 105 3 gusting 6 23.8
2020-Sep-27 20:20 090 4 gusting 7 23.9
2020-Sep-27 20:15 110 4 gusting 7 23.9
2020-Sep-27 20:10 085 4 gusting 6 23.6
2020-Sep-27 20:05 100 3 gusting 6 23.6
2020-Sep-27 20:00 075 4 gusting 6 23.6
2020-Sep-27 19:55 080 5 gusting 6 23.9
2020-Sep-27 19:50 070 3 gusting 7 23.8
2020-Sep-27 19:45 080 4 gusting 7 23.6
2020-Sep-27 19:40 075 5 gusting 7 23.8
2020-Sep-27 19:35 075 6 gusting 7 23.9
2020-Sep-27 19:30 085 4 gusting 7 24.1
2020-Sep-27 19:25 090 6 gusting 7 24.2
2020-Sep-27 19:20 090 4 gusting 6 24.4
2020-Sep-27 19:15 090 3 gusting 4 24.4
2020-Sep-27 19:10 095 3 gusting 5 24.4
2020-Sep-27 19:05 070 4 gusting 5 24.6
2020-Sep-27 19:00 110 3 gusting 5 24.9
2020-Sep-27 18:55 100 3 gusting 5 25.1
2020-Sep-27 18:50 100 3 gusting 5 24.9
2020-Sep-27 18:45 110 3 gusting 6 24.4
2020-Sep-27 18:40 090 4 gusting 6 24.6
2020-Sep-27 18:35 095 3 gusting 5 24.6
2020-Sep-27 18:30 095 3 gusting 5 24.9
2020-Sep-27 18:25 080 1 gusting 5 24.6
2020-Sep-27 18:20 040 3 gusting 6 24.9
2020-Sep-27 18:15 145 4 gusting 6 25.2
2020-Sep-27 18:10 120 1 gusting 5 25.4
2020-Sep-27 18:05 105 2 gusting 5 25.6
2020-Sep-27 18:00 350 2 gusting 5 24.9
2020-Sep-27 17:55 035 2 gusting 6 24.6
2020-Sep-27 17:50 050 3 gusting 8 24.1
2020-Sep-27 17:45 115 5 gusting 8 23.9
2020-Sep-27 17:40 095 4 gusting 7 24.1
2020-Sep-27 17:35 075 4 gusting 7 23.6
2020-Sep-27 17:30 100 4 gusting 7 24.1
2020-Sep-27 17:25 100 5 gusting 7 24.1
2020-Sep-27 17:20 075 3 gusting 6 24.1
2020-Sep-27 17:15 095 4 gusting 6 23.9
2020-Sep-27 17:10 040 3 gusting 6 23.8
2020-Sep-27 17:05 005 4 gusting 6 23.6
2020-Sep-27 17:00 015 3 gusting 5 24.1
2020-Sep-27 16:55 025 2 gusting 5 23.6
2020-Sep-27 16:50 355 3 gusting 5 24.1
2020-Sep-27 16:45 23.9
2020-Sep-27 16:40 335 5 gusting 7 24.2
2020-Sep-27 16:35 340 2 gusting 4 24.4
2020-Sep-27 16:30 015 2 gusting 5 24.4
2020-Sep-27 16:25 065 3 gusting 5 23.4
2020-Sep-27 16:20 090 2 gusting 5 23.1
2020-Sep-27 16:15 075 3 gusting 5 22.9
2020-Sep-27 16:10 030 3 gusting 5 22.8
2020-Sep-27 16:05 065 2 gusting 5 22.4
2020-Sep-27 16:00 075 4 gusting 7 22.4
2020-Sep-27 15:55 020 4 gusting 6 22.6
2020-Sep-27 15:50 045 3 gusting 6 22.1
2020-Sep-27 15:45 040 4 gusting 5 22.1
2020-Sep-27 15:40 100 3 gusting 6 21.9
2020-Sep-27 15:35 075 4 gusting 6 21.4
2020-Sep-27 15:30 080 5 gusting 7 21.6
2020-Sep-27 15:25 100 4 gusting 8 21.8
2020-Sep-27 15:20 105 6 gusting 8 21.9
2020-Sep-27 15:15 055 2 gusting 7 22.1
2020-Sep-27 15:10 055 4 gusting 7 21.9
2020-Sep-27 15:05 085 2 gusting 6 21.8
2020-Sep-27 15:00 095 4 gusting 6 21.6
2020-Sep-27 14:55 045 3 gusting 6 21.6
2020-Sep-27 14:50 075 5 gusting 8 21.1
2020-Sep-27 14:45 080 5 gusting 8 21.2
2020-Sep-27 14:40 070 4 gusting 9 21.6
2020-Sep-27 14:35 080 6 gusting 9 21.2
2020-Sep-27 14:30 070 3 gusting 8 21.2
2020-Sep-27 14:25 075 5 gusting 8 21.2
2020-Sep-27 14:20 050 5 gusting 8 21.4
2020-Sep-27 14:15 055 3 gusting 8 21.1
2020-Sep-27 14:10 075 5 gusting 8 20.9
2020-Sep-27 14:05 075 6 gusting 9 20.9
2020-Sep-27 14:00 085 6 gusting 9 21.1
2020-Sep-27 13:55 085 4 gusting 8 21.1
2020-Sep-27 13:50 070 6 gusting 8 20.9
2020-Sep-27 13:45 080 5 gusting 8 20.9
2020-Sep-27 13:40 065 4 gusting 7 20.9
2020-Sep-27 13:35 095 5 gusting 7 20.6
2020-Sep-27 13:30 060 3 gusting 7 20.4
2020-Sep-27 13:25 085 4 gusting 6 20.1
2020-Sep-27 13:20 045 3 gusting 6 20.1
2020-Sep-27 13:15 065 3 gusting 8 20.2
2020-Sep-27 13:10 060 6 gusting 8 20.1
2020-Sep-27 13:05 050 5 gusting 7 20.1
2020-Sep-27 13:00 075 5 gusting 7 20.1
2020-Sep-27 12:55 075 4 gusting 8 20.1
2020-Sep-27 12:50 085 4 gusting 9 20.1
2020-Sep-27 12:45 090 6 gusting 9 20.2
2020-Sep-27 12:40 065 3 gusting 6 20.2
2020-Sep-27 12:35 060 4 gusting 6 20.2
2020-Sep-27 12:30 070 4 gusting 7 20.1
2020-Sep-27 12:25 075 5 gusting 7 20.2
2020-Sep-27 12:20 075 4 gusting 6 20.2
2020-Sep-27 12:15 090 4 gusting 6 20.2
2020-Sep-27 12:10 065 3 gusting 6 20.2
2020-Sep-27 12:05 075 2 gusting 4 20.2
2020-Sep-27 12:00 080 3 gusting 5 20.1
2020-Sep-27 11:55 075 2 gusting 5 20.1
2020-Sep-27 11:50 085 3 gusting 5 20.1
2020-Sep-27 11:45 070 3 gusting 5 20.1
2020-Sep-27 11:40 065 3 gusting 5 19.9
2020-Sep-27 11:35 070 3 gusting 5 19.9
2020-Sep-27 11:30 065 2 gusting 4 19.9
2020-Sep-27 11:25 075 2 gusting 4 19.9
2020-Sep-27 11:20 055 2 gusting 3 19.8
2020-Sep-27 11:15 060 2 gusting 3 19.8
2020-Sep-27 11:10 080 2 gusting 3 19.6
2020-Sep-27 11:05 055 2 gusting 3 19.6
2020-Sep-27 11:00 050 1 gusting 3 19.6
2020-Sep-27 10:55 045 1 gusting 2 19.6
2020-Sep-27 10:50 060 1 gusting 3 19.6
2020-Sep-27 10:45 045 1 gusting 3 19.6
2020-Sep-27 10:40 040 1 gusting 2 19.6
2020-Sep-27 10:35 045 1 gusting 2 19.6
2020-Sep-27 10:30 065 1 gusting 3 19.6
2020-Sep-27 10:25 050 2 gusting 3 19.6
2020-Sep-27 10:20 045 2 gusting 3 19.6
2020-Sep-27 10:15 050 2 gusting 3 19.6
2020-Sep-27 10:10 045 2 gusting 3 19.6
2020-Sep-27 10:05 030 1 gusting 3 19.6
2020-Sep-27 10:00 025 2 gusting 3 19.6
2020-Sep-27 09:55 020 2 gusting 3 19.6
2020-Sep-27 09:50 020 2 gusting 3 19.6
2020-Sep-27 09:45 035 2 gusting 4 19.6
2020-Sep-27 09:40 035 2 gusting 4 19.6
2020-Sep-27 09:35 045 2 gusting 3 19.6
2020-Sep-27 09:30 040 2 gusting 3 19.6
2020-Sep-27 09:25 040 2 gusting 3 19.6
2020-Sep-27 09:20 030 1 gusting 3 19.6
2020-Sep-27 09:15 055 2 gusting 3 19.6
2020-Sep-27 09:10 045 2 gusting 4 19.6
2020-Sep-27 09:05 060 2 gusting 4 19.6
2020-Sep-27 09:00 065 2 gusting 3 19.6
2020-Sep-27 08:55 070 1 gusting 4 19.6
2020-Sep-27 08:50 085 1 gusting 4 19.6
2020-Sep-27 08:45 075 2 gusting 4 19.6
2020-Sep-27 08:40 075 2 gusting 4 19.6
2020-Sep-27 08:35 095 2 gusting 5 19.6
2020-Sep-27 08:30 095 3 gusting 6 19.6
2020-Sep-27 08:25 110 5 gusting 6 19.6
2020-Sep-27 08:20 110 2 gusting 5 19.6
2020-Sep-27 08:15 090 3 gusting 4 19.6
2020-Sep-27 08:10 080 3 gusting 4 19.6
2020-Sep-27 08:05 090 3 gusting 4 19.8
2020-Sep-27 08:00 095 3 gusting 4 19.8
2020-Sep-27 07:55 105 3 gusting 4 19.8
2020-Sep-27 07:50 125 2 gusting 4 19.8
2020-Sep-27 07:45 120 2 gusting 4 19.8
2020-Sep-27 07:40 100 3 gusting 4 19.8
2020-Sep-27 07:35 095 2 gusting 4 19.9
2020-Sep-27 07:30 090 1 gusting 2 19.8
2020-Sep-27 07:25 095 1 gusting 2 19.8
2020-Sep-27 07:20 095 1 gusting 2 19.8
2020-Sep-27 07:15 120 1 gusting 3 19.8
2020-Sep-27 07:10 115 2 gusting 4 19.8
2020-Sep-27 07:05 120 2 gusting 5 19.8
2020-Sep-27 07:00 130 3 gusting 5 19.8
2020-Sep-27 06:55 140 3 gusting 4 19.8
2020-Sep-27 06:50 130 2 gusting 4 19.8
2020-Sep-27 06:45 115 3 gusting 4 19.8
2020-Sep-27 06:40 120 2 gusting 3 19.8
2020-Sep-27 06:35 110 1 gusting 2 19.6
2020-Sep-27 06:30 105 1 gusting 1 19.6
2020-Sep-27 06:25 100 1 gusting 2 19.6
2020-Sep-27 06:20 120 1 gusting 2 19.6
2020-Sep-27 06:15 090 1 gusting 3 19.6
2020-Sep-27 06:10 105 2 gusting 3 19.6
2020-Sep-27 06:05 125 2 gusting 3 19.6
2020-Sep-27 06:00 095 2 gusting 4 19.6
2020-Sep-27 05:55 095 2 gusting 4 19.6
2020-Sep-27 05:50 100 2 gusting 3 19.6
2020-Sep-27 05:45 110 1 gusting 2 19.6
2020-Sep-27 05:40 050 0 gusting 2 19.6
2020-Sep-27 05:35 330 1 gusting 2 19.6
2020-Sep-27 05:30 005 0 gusting 1 19.6
2020-Sep-27 05:25 095 1 gusting 1 19.6
2020-Sep-27 05:20 070 0 gusting 2 19.6
2020-Sep-27 05:15 070 1 gusting 3 19.6
2020-Sep-27 05:10 100 2 gusting 3 19.6
2020-Sep-27 05:05 095 2 gusting 4 19.6
2020-Sep-27 05:00 095 1 gusting 4 19.6
2020-Sep-27 04:55 095 2 gusting 4 19.6
2020-Sep-27 04:50 105 3 gusting 4 19.6
2020-Sep-27 04:45 095 2 gusting 4 19.6
2020-Sep-27 04:40 095 3 gusting 3 19.6
2020-Sep-27 04:35 080 2 gusting 3 19.6
2020-Sep-27 04:30 090 2 gusting 3 19.6
2020-Sep-27 04:25 095 2 gusting 3 19.6
2020-Sep-27 04:20 085 2 gusting 3 19.6
2020-Sep-27 04:15 095 2 gusting 3 19.6
2020-Sep-27 04:10 095 1 gusting 2 19.6
2020-Sep-27 04:05 110 1 gusting 2 19.6
2020-Sep-27 04:00 100 1 gusting 3 19.6